Regional Weather Roundup
Issued by NWS

Home | Current Version | Previous Version | Graphics & Text | Print | Product List | Glossary Off
Versions: 1 2 3 4 5 6 7 8 9 10 11 12 13 14 15 16 17 18 19 20 21 22 23 24 25 26 27 28 29 30 31 32 33 34 35 36 37 38 39 40 41 42 43 44 45 46 47 48 49 50

000
ASUS43 KTOP 010159
RWRKS

WEATHER ROUNDUP FOR KANSAS
NATIONAL WEATHER SERVICE GOODLAND KS
900 PM CDT TUE SEP 30 2014

NOTE:  "FAIR" INDICATES FEW OR NO CLOUDS BELOW 12,000 FEET WITH NO
SIGNIFICANT WEATHER AND/OR OBSTRUCTIONS TO VISIBILITY.

KSZ001>006-013>018-027>032-041>047-010300-
NORTHWEST KANSAS

CITY           SKY/WX    TMP DP  RH WIND       PRES   REMARKS
GOODLAND       MOCLDY    61  47  59 S7        29.77S
HAYS           MOCLDY    68  59  73 NE10      29.69R
HILL CITY      CLEAR     67  57  70 E7        29.72R
RUSSELL        PTCLDY    66  63  90 E7        29.67S
$$

KSZ061>065-074>080-084>089-010300-
SOUTHWEST KANSAS

CITY           SKY/WX    TMP DP  RH WIND       PRES   REMARKS
DODGE CITY     PTCLDY    66  46  48 NW7       29.72R
GARDEN CITY    CLEAR     64  48  56 NW7       29.73R
GREAT BEND     CLOUDY    70  63  78 SW3       29.69R THUNDER
LIBERAL        CLEAR     64  41  42 NW7       29.74R
$$

KSZ066>073-081>083-090>101-010300-
SOUTHEAST KANSAS

CITY           SKY/WX    TMP DP  RH WIND       PRES   REMARKS
CHANUTE        CLEAR     73  62  68 SE9       29.80R
COFFEYVILLE    CLEAR     73  63  70 SE13      29.79R
HUTCHINSON     MOCLDY    78  58  49 SE20G25   29.68R
MEDICINE LODGE   N/A     80  57  45 S14G23    29.67R
NEWTON         MOCLDY    75  57  53 S15       29.74R
PARSONS        CLEAR     74  63  68 VRB6      29.81R
WICHITA INTL   MOCLDY    77  60  55 S15       29.71R
WICHITA JABRA  PTCLDY    77  60  55 S16G24    29.72R
WINFIELD       CLEAR     75  62  64 SE10      29.74S
$$

KSZ007>012-019>026-033>040-048>060-102>105-010300-
NORTHEAST KANSAS

CITY           SKY/WX    TMP DP  RH WIND       PRES   REMARKS
CONCORDIA      CLOUDY    66  66 100 SE7       29.74R FOG
EMPORIA        PTCLDY    73  62  68 SE15      29.75S
LAWRENCE       MOCLDY    72  59  63 SE9       29.78R
MANHATTAN      CLOUDY    78  62  57 SE16      29.70F
OLATHE IND     PTCLDY    73  58  59 SE9       29.81R
OLATHE EXE     PTCLDY    71  58  63 SE7       29.80R
SALINA         LGT RAIN  75  63  66 S8        29.70R
TOPEKA BILLARD MOCLDY    75  60  59 SE12      29.75S
TOPEKA FORBES  MOCLDY    75  60  59 SE12      29.75F
$$



USA.gov is the U.S. government's official web portal to all federal, state and local government web resources and services.